Grand Canyon, AZ

8:57 PM MST on July 26, 2017 (GMT -0700)
Grand Canyon National Park

Weather History for KGCN - March, 2014

Change the Weather History Date:

Tuesday, March 25, 2014

  Actual Average Record
Temperature  
Mean Temperature 40 °F -  
Max Temperature 62 °F 54 °F 68 °F (2004)
Min Temperature 18 °F 21 °F 12 °F (2009)
Degree Days  
Heating Degree Days 25    
Moisture  
Dew Point 10 °F    
Average Humidity 32    
Maximum Humidity 56    
Minimum Humidity 10    
Precipitation  
Precipitation 0.00 in - - ()
Sea Level Pressure  
Sea Level Pressure 29.95 in    
Wind  
Wind Speed 5 mph (ESE)    
Max Wind Speed 16 mph    
Max Gust Speed 23 mph    
Visibility 10 miles    
Events      
Averages and records for this station are not official NWS values.
T = Trace of Precipitation, MM = Missing Value Source: NWS Daily Summary

Daily Weather History Graph

Daily Weather History Graph

Search for Another Location

Airport or City:

Trip Planner

Search our weather history database for the weather conditions in past years. The results will help you decide how hot, cold, wet, or windy it might be!

Date:

Astronomy

Mar. 25, 2014 Rise Set
Actual Time 6:24 AM MST 6:44 PM MST
Civil Twilight 5:59 AM MST 7:10 PM MST
Nautical Twilight 5:29 AM MST 7:40 PM MST
Astronomical Twilight 4:58 AM MST 8:10 PM MST
Moon 2:40 AM MST (3/25) 1:28 PM MST (3/25)
Length of Visible Light 13h 11m
Length of Day
12h 19m
Waning Crescent, 31% of the Moon is Illuminated
Mar 25
Waning Crescent
Mar 30
New
Apr 7
First Quarter
Apr 15
Full
Apr 22
Last Quarter

Hourly Weather History & Observations

Time (MST) Temp. Windchill Dew Point Humidity Pressure Visibility Wind Dir Wind Speed Gust Speed Precip Events Conditions
12:54 AM 27.0 °F 20.5 °F 5.0 °F 39% 30.10 in 10.0 mi ENE 5.8 mph - N/A   Clear
1:54 AM 23.0 °F - 5.0 °F 46% 30.08 in 10.0 mi Calm Calm - N/A   Clear
2:54 AM 18.0 °F 12.7 °F 1.9 °F 50% 30.09 in 10.0 mi NNE 3.5 mph - N/A   Clear
3:54 AM 19.0 °F - 1.9 °F 47% 30.08 in 10.0 mi Calm Calm - N/A   Clear
4:54 AM 19.0 °F - 3.9 °F 52% 30.07 in 10.0 mi Calm Calm - N/A   Clear
5:54 AM 19.0 °F 13.9 °F 3.9 °F 52% 30.09 in 10.0 mi NNE 3.5 mph - N/A   Clear
6:54 AM 19.9 °F - 5.0 °F 52% 30.15 in 10.0 mi Calm Calm - N/A   Clear
7:54 AM 46.9 °F - 3.9 °F 17% 30.06 in 10.0 mi East 8.1 mph - N/A   Clear
8:54 AM 54.0 °F - 3.9 °F 13% 30.04 in 10.0 mi ESE 12.7 mph - N/A   Clear
9:54 AM 59.0 °F - 3.9 °F 11% 30.02 in 10.0 mi East 12.7 mph 17.3 mph N/A   Clear
10:54 AM 61.0 °F - 3.9 °F 10% 30.00 in 10.0 mi SE 11.5 mph 20.7 mph N/A   Clear
11:54 AM 62.1 °F - 5.0 °F 10% 29.97 in 10.0 mi Variable 5.8 mph 20.7 mph N/A   Clear
12:54 PM 62.1 °F - 8.1 °F 12% 29.91 in 10.0 mi SSE 8.1 mph - N/A   Clear
1:54 PM 62.1 °F - 10.0 °F 13% 29.90 in 10.0 mi SW 10.4 mph - N/A   Scattered Clouds
2:54 PM 62.1 °F - 16.0 °F 17% 29.90 in 10.0 mi SSW 16.1 mph 23.0 mph N/A   Mostly Cloudy
3:54 PM 62.1 °F - 17.1 °F 18% 29.86 in 10.0 mi ENE 8.1 mph - N/A   Scattered Clouds
4:54 PM 61.0 °F - 12.9 °F 15% 29.85 in 10.0 mi SW 13.8 mph 23.0 mph N/A   Partly Cloudy
5:54 PM 55.0 °F - 21.0 °F 27% 29.88 in 10.0 mi NW 9.2 mph 21.9 mph N/A   Mostly Cloudy
6:54 PM 53.1 °F - 21.0 °F 29% 29.87 in 10.0 mi South 6.9 mph - N/A   Partly Cloudy
7:54 PM 44.1 °F - 19.0 °F 37% 29.78 in 10.0 mi Calm Calm - N/A   Clear
8:54 PM 35.1 °F - 17.1 °F 48% 29.80 in 10.0 mi Calm Calm - N/A   Scattered Clouds
9:54 PM 33.1 °F - 15.1 °F 48% 29.79 in 10.0 mi Calm Calm - N/A   Clear
10:54 PM 30.0 °F - 15.1 °F 54% 29.77 in 10.0 mi Calm Calm - N/A   Clear
11:54 PM 28.0 °F - 14.0 °F 56% 29.75 in 10.0 mi Calm Calm - N/A   Clear